RH
69 66 53 61 65 53 62 65 76 64 54 54 46 77 71 80 77 90 94 97 100 100 98 88 66 61 46 40 35 40 38 45 48 54 54 57 43 40 29 25 20 17 23
74 73 79 83 72 57 97 66 57 100 100 98 91 66 55 74 80 70 94 100 100 97 76 73 66 64 51 56 44 39 36 29 38 48 54 58 54 41 29 25 22 19 18
84 82 75 79 78 61 60 98 100 58 96 66 62 89 94 98 95 90 100 100 100 92 80 60 54 55 54 51 51 44 39 38 29 30 54 59 67 57 44 32 24 21 20
75 71 72 68 76 83 75 71 75 100 92 73 52 52 71 96 97 100 100 100 100 91 68 58 50 47 48 46 48 52 40 34 35 30 36 51 57 61 64 47 29 23 20
94 93 96 92 84 81 82 91 94 80 78 79 71 66 58 65 65 66 79 93 86 77 63 69 65 57 55 46 42 52 50 45 37 37 31 36 47 50 60 65 39 27 23
74 78 80 82 75 72 88 92 86 82 93 98 88 87 63 56 50 62 61 72 87 78 70 78 94 75 75 71 52 61 60 64 50 47 41 32 39 42 44 58 58 34 34
38 41 35 43 57 89 88 59 64 87 100 100 100 100 90 87 66 53 74 78 85 85 84 83 92 97 87 85 81 76 61 62 63 63 56 49 39 48 50 44 57 62 44
29 25 19 20 21 20 26 62 90 98 100 100 94 99 100 100 94 77 76 47 65 76 67 86 88 100 100 98 100 85 88 76 65 59 67 60 51 45 46 53 59 61 66
28 26 22 26 32 34 33 29 24 27 58 75 91 89 74 89 100 100 83 82 79 80 66 68 85 87 90 100 100 100 100 100 98 66 61 62 65 61 52 57 100 94 78
38 32 32 32 32 35 36 36 37 35 29 38 58 71 87 89 80 84 100 97 86 75 86 91 83 76 86 92 100 100 100 100 100 85 68 60 63 62 65 65 94 100 100
36 34 36 40 45 42 44 42 40 38 40 32 28 36 58 73 86 94 75 74 76 65 80 69 67 82 83 89 95 100 100 98 100 98 85 74 70 61 58 63 82 100 100
40 36 42 39 36 30 35 37 39 39 39 39 40 31 31 48 98 100 100 100 67 64 61 56 52 57 74 90 87 97 100 100 100 99 100 99 92 74 67 55 73 99 100
43 44 43 45 37 37 34 32 37 38 38 40 46 43 35 34 71 100 100 100 99 82 77 53 52 57 58 66 83 76 86 96 100 100 100 98 89 86 91 74 58 73 98
46 46 53 53 48 36 31 36 38 40 41 37 41 53 52 38 35 80 100 100 100 96 85 73 57 59 64 65 74 52 63 85 100 100 100 82 84 84 73 78 68 63 73
57 54 64 58 58 53 53 47 35 41 41 43 39 48 64 55 39 88 100 100 100 100 100 99 76 74 76 93 66 63 57 78 100 100 100 100 91 80 62 60 81 77 71
62 68 58 71 60 55 52 45 33 31 41 45 41 40 56 68 59 39 52 100 100 100 100 100 99 96 100 90 84 73 81 65 100 100 100 100 100 100 95 68 82 88 75
71 69 72 68 60 51 47 43 39 27 35 46 43 46 45 68 74 69 44 41 98 100 100 100 100 99 98 100 85 90 100 100 92 98 100 100 100 100 100 89 83 87 67
69 80 63 64 72 68 51 40 38 32 32 39 44 45 53 67 88 88 82 53 40 73 100 100 100 100 100 100 100 100 100 100 100 100 100 100 100 100 100 99 100 100 94
78 82 76 66 67 62 48 45 37 36 32 41 50 40 44 62 87 92 88 86 59 40 40 77 100 100 100 100 100 100 100 100 100 98 68 96 100 100 100 100 99 100 100
84 92 84 64 76 64 50 48 37 43 38 43 50 40 42 52 80 100 99 99 91 68 49 47 59 100 100 100 100 100 100 100 100 100 100 100 85 76 85 100 100 100 100
100 100 94 91 71 62 48 47 32 35 42 44 45 41 39 52 74 76 100 100 100 95 84 61 48 53 100 100 100 100 100 100 100 100 100 100 100 100 84 74 98 100 100
100 99 98 95 68 56 49 45 26 33 27 35 33 38 40 56 80 88 92 82 91 99 93 88 64 49 48 98 100 100 100 100 98 100 100 100 100 100 100 94 93 79 77
92 99 100 85 72 68 49 43 29 24 24 21 22 28 37 79 91 99 100 100 94 66 70 85 88 61 54 52 68 100 100 100 100 100 100 100 100 100 100 100 100 94 87
96 100 98 79 70 60 44 41 33 12 18 14 17 17 29 60 87 100 100 100 100 100 90 68 61 79 68 64 59 52 100 100 100 99 94 100 100 100 100 100 100 100 100
98 93 85 86 63 59 42 37 31 11 10 11 13 15 14 49 90 73 77 92 94 100 100 100 95 66 55 65 65 58 46 98 100 100 100 93 93 100 100 100 100 100 100
96 88 78 74 60 60 40 39 27 12 9 10 10 14 14 31 63 65 56 52 57 79 97 100 100 100 92 76 62 56 51 53 90 100 100 100 95 88 100 99 100 100 100
Wind_Speed
48 48 48 49 49 50 47 47 44 45 43 42 43 44 44 46 45 47 47 47 47 45 41 40 38 39 39 38 34 36 36 35 33 34 34 32 31 29 28 30 30 29 30
54 53 53 52 53 53 53 52 49 49 46 44 42 48 51 50 51 51 53 54 52 49 47 46 45 43 41 37 38 38 38 40 39 37 36 34 32 31 30 30 30 30 31
56 57 58 59 57 57 57 58 56 55 56 59 61 55 59 58 55 57 61 61 59 54 52 52 51 48 45 44 41 40 40 40 41 41 40 39 37 34 33 33 33 32 32
58 60 62 62 62 63 63 62 63 63 65 64 63 63 60 64 66 66 66 64 60 58 57 56 55 53 51 48 46 42 42 43 43 43 43 43 42 41 39 36 34 33 33
60 62 64 65 66 68 70 70 69 70 71 71 69 63 66 66 66 67 68 68 67 64 61 59 57 54 53 53 52 50 49 45 46 45 45 45 47 44 42 41 36 35 35
68 69 70 70 72 73 71 72 74 76 76 75 73 71 71 69 69 66 70 70 67 66 64 59 57 58 55 52 52 51 49 45 47 45 47 47 47 47 44 46 41 39 37
50 55 60 69 77 79 81 82 81 76 77 76 77 75 74 72 73 71 61 63 63 69 68 67 62 57 56 55 54 52 52 51 49 47 47 48 47 47 47 47 46 43 42
20 26 32 33 41 51 64 81 84 84 80 81 81 77 78 77 71 66 72 77 77 74 64 62 65 62 55 53 52 50 53 55 52 50 49 49 49 49 48 49 46 48 47
25 22 28 30 28 33 36 46 59 75 92 93 88 85 86 82 80 78 64 65 71 65 74 72 60 64 63 54 47 47 49 52 52 52 50 51 51 51 49 47 47 46 51
39 35 31 33 36 36 37 39 40 47 65 79 98 93 88 89 88 88 86 84 76 72 72 72 62 66 65 62 62 52 50 49 48 52 54 55 53 53 51 51 52 51 45
50 46 44 44 47 41 44 38 39 41 47 63 76 88 101 94 87 88 93 93 94 90 85 80 75 74 71 69 65 64 60 58 52 52 52 54 57 56 58 54 55 55 54
60 63 64 62 53 42 39 39 41 41 42 47 59 75 77 89 90 89 77 83 98 95 95 92 89 83 77 76 70 70 68 66 64 61 56 55 56 60 57 60 59 60 59
63 65 64 62 60 59 53 51 46 41 40 44 49 59 72 79 90 94 95 93 89 95 94 93 87 85 83 83 80 77 77 75 69 64 65 63 60 61 62 60 61 63 63
65 62 69 71 68 62 58 54 53 50 45 45 47 52 62 75 80 89 95 97 98 98 99 97 97 92 90 84 82 81 80 81 75 68 66 70 70 65 65 64 63 64 65
67 71 75 75 80 83 80 69 63 56 48 43 48 48 58 67 80 84 90 98 100 103 102 101 95 94 92 87 91 87 79 80 79 75 69 68 69 69 67 68 68 67 67
69 75 76 80 89 85 83 69 64 57 52 49 48 51 54 63 72 85 90 96 90 96 95 92 98 95 90 94 90 87 83 84 78 80 74 73 72 74 69 68 68 66 67
71 77 82 84 90 92 82 68 62 58 51 50 50 52 56 63 70 77 87 93 103 94 88 88 93 95 97 94 91 90 84 76 77 82 80 78 83 81 79 77 74 71 70
75 83 86 90 89 100 91 70 61 57 52 50 50 53 58 66 72 78 81 89 97 103 108 95 89 88 89 93 89 86 87 85 79 80 83 84 81 78 78 78 79 74 73
78 87 96 95 96 104 96 74 60 55 52 50 52 55 59 65 74 78 82 84 89 97 97 105 109 98 91 90 91 94 89 91 92 98 98 86 84 89 86 78 75 79 76
81 90 101 99 105 104 99 74 57 53 54 50 51 55 58 65 74 79 83 86 86 88 94 95 100 112 103 88 89 91 93 90 82 79 83 83 85 87 87 93 86 80 81
88 93 103 102 107 111 101 77 57 50 53 46 50 53 58 64 72 79 87 91 90 88 88 92 95 97 115 110 95 93 97 95 92 88 87 85 86 83 84 87 89 92 91
89 97 100 104 111 112 102 81 62 48 49 45 47 50 54 64 70 76 80 87 93 93 90 89 91 94 96 117 111 106 100 102 99 98 89 95 87 78 79 84 87 86 85
93 98 105 109 110 112 100 82 66 49 48 47 44 48 54 62 68 75 80 82 86 85 89 89 88 91 95 99 108 121 117 108 108 109 104 98 93 86 87 90 91 89 87
93 100 106 110 112 115 99 79 66 53 46 46 46 46 52 61 67 72 78 81 83 87 89 87 91 90 93 93 93 97 113 111 106 110 111 107 104 100 95 89 80 89 89
97 102 106 112 119 115 97 77 66 57 47 46 45 47 49 58 66 69 70 78 79 83 90 97 93 88 87 92 93 95 96 112 111 106 107 111 110 107 106 99 102 95 85
101 107 113 115 121 112 95 75 66 58 50 46 46 47 49 53 60 64 68 73 76 79 85 91 96 96 92 86 87 89 94 98 109 114 110 108 110 110 111 110 107 101 93
Wind_Direction
250 252 252 255 258 255 255 258 258 259 258 254 250 249 251 251 252 249 249 257 262 264 269 271 271 269 267 267 267 263 264 259 259 261 261 260 255 253 255 254 254 253 249
248 251 254 256 256 254 256 257 254 247 247 245 246 255 258 258 254 253 256 258 262 265 268 271 271 267 267 266 267 267 263 261 258 257 260 258 258 256 254 254 254 254 254
253 253 254 255 255 254 253 247 249 252 246 251 255 257 248 250 252 256 259 261 262 265 269 271 269 268 266 267 265 265 265 262 258 255 254 258 257 256 257 254 254 254 254
255 254 255 257 258 257 256 252 249 248 252 252 254 256 255 251 255 260 261 264 267 269 270 271 268 267 266 266 264 263 263 262 261 255 253 253 255 256 257 256 252 251 250
259 258 258 257 256 257 258 257 255 254 254 253 251 251 254 255 259 260 262 263 265 266 271 269 266 266 265 266 265 264 262 261 260 258 254 251 252 253 253 255 252 249 252
265 264 262 262 260 258 257 258 257 258 256 256 254 250 250 253 256 258 258 260 263 264 265 267 267 264 264 263 262 259 261 258 258 255 255 253 252 252 250 253 251 249 251
277 274 274 271 266 263 262 260 258 257 257 258 254 251 252 249 253 250 254 257 259 262 265 262 263 265 264 261 260 259 260 257 257 256 255 255 253 254 253 251 250 248 249
305 283 279 280 279 273 268 260 258 257 256 257 256 256 253 250 248 251 253 255 257 255 257 259 258 258 259 261 262 259 256 256 256 256 257 254 254 251 254 254 252 249 248
354 320 284 290 295 303 287 275 267 260 255 255 254 256 255 255 253 252 250 250 248 253 256 256 254 253 252 256 257 257 255 255 257 257 254 253 251 251 249 250 250 254 251
351 345 335 326 314 311 301 293 285 268 260 255 252 253 252 253 254 255 253 250 249 252 248 249 249 248 256 254 250 254 253 253 255 256 254 253 253 253 251 247 246 249 252
346 342 335 326 327 317 314 310 294 277 267 256 253 250 251 252 254 255 253 252 253 251 252 251 247 250 253 254 252 254 254 255 253 255 258 256 255 253 251 249 246 247 250
342 340 339 336 332 319 311 309 302 295 273 262 258 249 248 245 244 244 248 250 250 250 251 254 254 252 249 249 250 252 256 258 258 257 255 253 253 251 252 250 248 246 247
338 337 338 335 330 325 320 310 308 298 286 269 262 254 245 244 240 240 243 248 245 247 248 250 251 251 252 249 251 252 257 259 257 253 252 253 252 250 250 249 250 249 249
337 335 341 344 341 332 320 314 308 302 286 276 264 257 251 242 241 237 238 241 246 248 249 249 249 250 252 252 253 252 253 255 253 253 256 256 254 251 251 251 250 250 251
334 338 338 339 335 331 326 316 306 299 292 284 267 262 250 245 239 234 236 241 244 247 245 247 249 248 248 247 250 251 250 252 251 252 250 250 254 256 255 254 251 249 250
335 335 338 336 332 330 326 317 306 292 285 282 270 259 253 245 241 238 235 232 234 241 244 246 244 244 242 244 249 252 250 249 249 248 243 245 247 251 252 254 251 250 252
332 336 336 336 335 333 327 316 308 288 279 278 269 261 251 245 241 240 237 236 232 229 232 241 246 246 244 245 246 244 242 244 248 249 244 247 251 251 251 252 249 252 253
333 334 334 334 336 335 330 315 303 285 274 273 273 262 254 243 241 239 238 237 235 234 232 231 238 240 238 239 238 240 241 239 236 239 243 241 239 244 246 246 251 252 253
330 332 333 334 334 335 332 318 304 287 270 268 270 260 253 244 240 239 238 237 236 235 235 235 233 233 237 239 241 240 238 241 242 248 251 243 242 240 243 245 244 250 249
329 332 332 333 332 332 331 322 309 295 272 265 264 255 248 247 239 239 239 238 238 236 235 235 234 230 230 235 236 235 236 235 237 239 238 238 239 241 242 245 244 244 246
329 332 330 331 332 331 330 324 311 304 284 270 263 255 250 244 242 239 235 236 237 238 235 235 235 235 229 230 230 235 238 239 235 237 236 238 241 242 245 245 245 247 248
329 330 330 329 332 333 331 325 315 306 296 281 274 260 254 244 241 241 244 243 235 235 235 234 234 234 235 230 229 232 235 241 236 235 235 237 237 240 246 246 246 249 250
331 330 330 330 332 332 330 325 316 308 304 291 278 265 254 247 243 241 240 243 245 246 241 236 233 234 234 234 233 231 235 238 240 241 241 236 237 237 246 248 249 248 250
333 329 329 331 332 331 328 323 316 311 305 297 287 270 257 249 243 242 241 240 244 247 247 247 241 235 234 235 236 235 231 233 233 239 240 241 238 239 241 244 247 251 251
332 330 331 332 333 332 327 321 315 311 307 299 287 280 263 249 246 244 242 239 241 243 245 245 245 247 243 236 235 236 234 233 232 232 238 240 241 240 242 241 246 249 251
333 331 332 332 332 330 327 319 315 310 306 300 290 280 269 252 247 245 244 242 239 239 241 244 244 243 242 243 241 238 236 233 232 233 234 238 241 241 241 243 245 247 246